MST,Max TemperatureF,Mean TemperatureF,Min TemperatureF,Max Dew PointF,MeanDew PointF,Min DewpointF,Max Humidity, Mean Humidity, Min Humidity, Max Sea Level PressureIn, Mean Sea Level PressureIn, Min Sea Level PressureIn, Max VisibilityMiles, Mean VisibilityMiles, Min VisibilityMiles, Max Wind SpeedMPH, Mean Wind SpeedMPH, Max Gust SpeedMPH,PrecipitationIn, CloudCover, Events, WindDirDegrees
2012-11-1,69,45,21,13,5,0,44,25,7,30.24,30.09,29.96,10,10,10,17,4,25,0.00,0,,260
2012-11-2,64,44,26,24,12,0,40,28,18,30.17,30.02,29.94,10,10,10,10,4,,0.00,0,,22
2012-11-3,66,44,23,18,11,6,48,31,15,30.25,30.13,30.03,10,10,10,14,2,,0.00,0,,292
2012-11-4,66,42,19,12,7,2,46,28,11,30.38,30.26,30.16,10,10,10,10,1,,0.00,0,,352
2012-11-5,68,46,23,23,14,1,48,31,17,30.39,30.24,30.13,10,10,9,7,3,,0.00,0,,60
2012-11-6,71,45,19,22,15,7,60,35,12,30.39,30.22,30.07,10,10,9,7,3,,0.00,0,,60
2012-11-7,70,46,21,18,11,3,53,30,11,30.32,30.13,29.96,10,10,10,14,4,21,0.00,0,,229
2012-11-8,64,47,30,39,16,7,74,31,13,30.07,29.89,29.75,10,10,10,23,9,33,0.00,1,Rain,228
2012-11-9,55,47,39,44,39,33,87,74,59,29.95,29.74,29.61,10,8,2,31,12,43,0.16,4,Rain,202
2012-11-10,45,34,24,37,26,21,100,87,65,30.02,29.83,29.48,10,4,0,24,15,38,0.21,8,Fog-Rain-Snow,237
2012-11-11,33,24,14,19,14,10,89,68,40,30.58,30.33,30.05,10,10,10,18,8,25,0.00,1,,251
2012-11-12,42,26,10,16,12,7,84,60,32,30.69,30.55,30.44,10,10,10,13,4,,0.00,0,,36
2012-11-13,51,32,14,18,14,9,88,62,18,30.55,30.44,30.31,10,10,10,8,1,,0.00,0,,32
2012-11-14,55,34,12,22,17,9,85,60,18,30.57,30.37,30.22,10,10,10,7,1,,0.00,0,,292
2012-11-15,54,36,17,25,20,14,88,59,22,30.46,30.32,30.22,10,10,10,7,1,,0.00,0,,26
2012-11-16,62,46,30,27,22,17,79,49,20,30.27,30.15,30.03,10,10,10,15,3,20,0.00,3,,208
2012-11-17,57,42,27,32,25,22,81,58,28,30.33,30.16,30.07,10,10,10,16,4,22,0.00,1,,152
2012-11-18,55,42,25,34,27,20,89,65,31,30.30,30.15,30.06,10,10,10,15,4,21,0.00,0,,205
2012-11-19,55,37,19,31,20,12,92,59,22,30.48,30.34,30.21,10,10,9,12,2,,0.00,0,,161
2012-11-20,62,39,16,21,14,11,81,50,14,30.53,30.35,30.16,10,10,10,6,1,,0.00,0,,26
2012-11-21,61,40,18,22,16,10,74,48,19,30.39,30.21,30.05,10,10,10,13,2,17,0.00,0,,213
2012-11-22,62,40,19,26,18,14,78,52,19,30.46,30.26,30.10,10,10,10,12,2,,0.00,0,,35
2012-11-23,61,38,14,22,15,10,84,50,17,30.61,30.43,30.30,10,10,9,8,1,,0.00,0,,35
2012-11-24,62,38,15,20,13,9,81,50,13,30.55,30.32,30.14,10,10,10,10,1,16,0.00,0,,291
2012-11-25,61,36,12,23,13,7,77,45,15,30.31,30.11,29.94,10,10,10,16,4,24,0.00,0,,108
2012-11-26,59,38,18,23,13,7,68,44,17,30.40,30.20,30.01,10,10,10,7,2,,0.00,0,,114
2012-11-27,60,36,12,16,9,5,77,45,14,30.55,30.40,30.28,10,10,10,8,2,,0.00,0,,255
2012-11-28,60,38,15,22,14,4,68,46,20,30.57,30.34,30.17,10,10,10,9,2,20,0.00,0,,190
2012-11-29,60,40,21,27,20,11,78,55,26,30.40,30.24,30.13,10,10,10,14,3,,0.00,0,,291
2012-11-30,59,39,19,29,20,14,85,55,24,30.38,30.21,30.09,10,10,10,14,3,23,0.00,0,,211